Powrót do katalogu

DOUBLESTAR

TC-2

AktywnyNaukaHEO
NORAD 28382·PAYLOAD·🇨🇳 China

Wystrzelony Jul 25, 2004 z Taiyuan Satellite Launch Center

Loading…

Następne Przeloty (najbliższe 24 godziny)

TLE

ŚwieżeSource: Space-Track

Epoka: Sep 13, 2026, 22:15 UTC

1 28382U 04029A   26256.92775168  .00000437  00000-0  70747-3 0  9996
2 28382  87.8682 235.3729 6941346  97.8697 339.4144  2.62250340183008

Śledź DOUBLESTAR w czasie rzeczywistym z AllMySat

Download on the App Store